Location: Newark
(45.5000°N, 11.4167°E)
Time: 13:56:13
(UTC+00:00)

Explorer 11/Cluster Stage 4 - Pass Details

Date: 27 August 2019
Orbit: 467 x 1260 km, 28.8° (Epoch: 21 September)

Event Time Altitude Azimuth Distance (km) Brightness Sun altitude
Rises 07:06:09 0° 203° (SSW) 3,753 10.0 26.4°
Reaches altitude 10° 07:10:53 10° 175° (S) 2,980 9.9 27.2°
Maximum altitude 07:13:27 12° 154° (SSE) 2,908 10.2 27.6°
Drops below altitude 10° 07:16:07 10° 134° (SE) 3,126 10.8 28.1°
Sets 07:21:25 0° 107° (ESE) 4,181 11.5 29.0°
